Regional Weather Roundup
Issued by NWS

Home | Current Version | Previous Version | Graphics & Text | Print | Product List | Glossary On
Versions: 1 2 3 4 5 6 7 8 9 10 11 12 13 14 15 16 17 18 19 20 21 22 23 24 25 26 27 28 29 30 31 32 33 34 35 36 37 38 39 40 41 42 43 44 45 46 47 48 49 50
000
ASUS43 KMKX 100711
RWRWI

WISCONSIN REGIONAL WEATHER ROUNDUP
NATIONAL WEATHER SERVICE MILWAUKEE/SULLIVAN WI
200 AM CDT THU JUL 10 2014

NOTE: "FAIR" INDICATES FEW OR NO CLOUDS BELOW 12,000 FEET WITH NO
SIGNIFICANT WEATHER AND/OR OBSTRUCTIONS TO VISIBILITY.

WIZ001-002-006>008-014>016-023>028-100800-
NORTHWEST WISCONSIN

CITY           SKY/WX    TMP DP  RH WIND       PRES   REMARKS
SUPERIOR ARPT  CLEAR     51  50  98 NE3       30.04S
ASHLAND        CLEAR     49  47  93 CALM      30.06S FOG
HAYWARD        CLEAR     53  52  96 CALM      30.07R
SIREN          PTCLDY    57  55  92 S3        30.05S
RICE LAKE      CLEAR     55  53  94 CALM      30.07S
LADYSMITH      CLEAR     54  51  88 E5        30.09R
EAU CLAIRE     CLEAR     56  54  93 CALM      30.05R
MENOMONIE      MOSUNNY   59  57  93 CALM      30.05S
NEW RICHMOND   CLEAR     58  56  92 E5        30.04S
OSCEOLA        CLEAR     59  58  97 E3        30.06S
$$

WIZ003>005-009-010-017-018-100800-
NORTH CENTRAL WISCONSIN

CITY           SKY/WX    TMP DP  RH WIND       PRES   REMARKS
WOODRUFF       CLEAR     45  37  75 CALM      30.09S
RHINELANDER    CLEAR     45  44  97 CALM      30.10R
EAGLE RIVER    FOG       41  41 100 CALM      30.09S VSB 3/4
LAND O LAKES   CLEAR     40  40  99 CALM      30.10S
PHILLIPS       CLEAR     48  47  96 CALM      30.09R
TOMAHAWK       CLEAR     42  41  97 CALM      30.10R
MEDFORD        CLEAR     49  48  99 CALM      30.09R
MERRILL        CLEAR     45  45  99 CALM      30.09R
$$

WIZ029-030-035-036-043>047-100800-
CENTRAL WISCONSIN

CITY           SKY/WX    TMP DP  RH WIND       PRES   REMARKS
WAUSAU         CLEAR     52  50  93 E3        30.08R
MOSINEE        CLEAR     50  50 100 CALM      30.10R
MARSHFIELD     CLEAR     54  52  93 CALM      30.08R
STEVENS POINT  CLEAR     48  47  95 CALM      30.10R
WAUPACA        CLEAR     53  51  94 CALM      30.09R
WAUTOMA        CLEAR     52  51  96 CALM      30.10R
WISC RAPIDS    CLEAR     52  50  93 CALM      30.09R
CAMP DOUGLAS   CLEAR     52  52 100 E3        30.08R
$$

WIZ011>013-019>022-031-037>040-048>050-100800-
NORTHEAST WISCONSIN

CITY           SKY/WX    TMP DP  RH WIND       PRES   REMARKS
ANTIGO         CLEAR     46  46  99 CALM      30.10R
STURGEON BAY   CLEAR     52  48  87 CALM      30.09S
GREEN BAY      CLEAR     54  53  97 CALM      30.08R
MANITOWOC      CLEAR     53  52  96 CALM      30.10R
APPLETON       CLEAR     57  48  72 CALM      30.09S
CLINTONVILLE   CLEAR     50  48  93 CALM      30.09R
OSHKOSH        CLEAR     55  52  89 CALM      30.08R
$$

WIZ032>034-041-042-053>061-100800-
SOUTHWEST WISCONSIN

CITY           SKY/WX    TMP DP  RH WIND       PRES   REMARKS
LA CROSSE      CLEAR     61  56  83 SE5       30.06R
SPARTA         CLEAR     51  49  95 CALM      30.08S
VIROQUA        FAIR      59  54  83 SE7       30.08S
BOSCOBEL       CLEAR     56  54  93 CALM      30.09R
PRAIRIE DU CHI MOCLDY    61  58  90 SE3       30.07R
PLATTEVILLE    MOCLDY    61  55  82 SE7       30.09S
$$

WIZ056-057-062-063-064-067-068-100800-
SOUTH CENTRAL WISCONSIN

CITY           SKY/WX    TMP DP  RH WIND       PRES   REMARKS
BARABOO/DELLS  CLEAR     54  51  90 CALM      30.09R
LONE ROCK      CLEAR     58  53  84 CALM      30.09R
WATERTOWN      CLEAR     54  53  95 CALM      30.09R
MADISON        CLEAR     56  53  90 CALM      30.09R
MIDDLETON      FAIR      55  55 100 CALM      30.10R
MONROE         CLEAR     63  52  67 SE7       30.10R
JANESVILLE     CLEAR     55  52  88 CALM      30.10R
$$

WIZ051-052-058>065-066-070>072-100800-
SOUTHEAST WISCONSIN

CITY           SKY/WX    TMP DP  RH WIND       PRES   REMARKS
MILWAUKEE      CLEAR     59  54  83 CALM      30.09R
WAUKESHA       CLEAR     54  50  87 CALM      30.11R
MILWAUKEE/TIMM CLEAR     57  52  82 CALM      30.10R
RACINE         CLEAR     59  55  87 CALM      30.11R
BURLINGTON     CLEAR     51  51  99 CALM      30.10R
KENOSHA        CLEAR     55  54  96 SW3       30.10R
FOND DU LAC    CLEAR     54  51  90 CALM      30.09R
SHEBOYGAN      CLEAR     51  50  96 CALM      30.09R FOG
WEST BEND      CLEAR     52  50  93 CALM      30.10R FOG
JUNEAU         CLEAR     56  41  55 CALM      30.10R
$$

LSZ147-162-100800-
LAKE SUPERIOR

STATION/POSITION TIME  TEMP    WIND        PRES    WAVE
                       AIR SEA DIR/SP/G            HT/PER
                 (UTC) (F)     (DEG/KT/KT) (MB)    (FT/S)
W MID LAKE BUOY  0650   45 38  240/  6/  8 1017.6R   0
DEVILS ISLAND    0700   62     180/  9/ 11 1017.4R
PORT WING        0600   58     140/  3/  4 1017.3R
SAXON HARBOR     0600          200/  6/  7 1017.3S
$$

LMZ867-665-643>646-100800-
LAKE MICHIGAN

STATION/POSITION TIME  TEMP    WIND        PRES    WAVE
                       AIR SEA DIR/SP/G            HT/PER
                 (UTC) (F)     (DEG/KT/KT) (MB)    (FT/S)
N MID LAKE BUOY  0650   55 54  170/  4/  6 1018.4R   0
NORTHPORT PIER   0600   57     200/  3/  6 1017.9S
SISTER BAY       0625   57        CALM       N/A
KEWAUNEE LAKESHO 0600   56     290/  5/  5 1018.9R
SHEBOYGAN LAKESH 0700   56     190/  1/  2 1019.5R
PORT WASHINGTON  0600   56      CALM  /  1 1019.3
ATWATER BUOY     0700   54     300/  2     1019.9R
MILWAUKEE LAKESH 0600   58      80/  1/  2   N/A
S MID LAKE BUOY  0650   58 56   20/  2/  2 1019.3R   0
KENOSHA   LAKESH 0700   61     250/  2/  2   N/A
$$

TC  - TEMPERATURE IN CELSIUS
VSB - VISIBILITY IN STATUTE MILES
WCI - WIND CHILL INDEX
HX  - HEAT INDEX




USA.gov is the U.S. government's official web portal to all federal, state and local government web resources and services.